Back to catalog

COSMOS 2251 DEB

AliveLEO
NORAD 34998·DEBRIS·🇷🇺 Russia

Launched Jun 16, 1993 from Plesetsk Cosmodrome

Loading…

Next Passes (next 24 hours)

TLE

FreshSource: Space-Track

Epoch: Sep 13, 2026, 06:46 UTC

1 34998U 93036AFW 26256.28257810  .00001110  00000-0  29155-3 0  9996
2 34998  74.0120   3.7587 0019550  81.7811 307.6895 14.50238394913993

Track COSMOS 2251 DEB in real time with AllMySat

Download on the App Store